TimeEST,TemperatureF,Dew PointF,Humidity,Sea Level PressureIn,VisibilityMPH,Wind Direction,Wind SpeedMPH,Gust SpeedMPH,PrecipitationIn,Events,Conditions,WindDirDegrees,DateUTC
12:53 AM,32.0,21.9,66,30.30,10.0,West,9.2,-,N/A,,Overcast,260,2012-11-28 05:53:00
1:14 AM,32.0,21.2,64,30.26,10.0,West,6.9,-,N/A,,Overcast,260,2012-11-28 06:14:00
1:53 AM,32.0,21.0,64,30.29,10.0,West,6.9,-,N/A,,Overcast,260,2012-11-28 06:53:00
2:36 AM,32.0,21.2,64,30.25,10.0,West,4.6,-,N/A,,Overcast,270,2012-11-28 07:36:00
2:53 AM,32.0,21.0,64,30.30,10.0,West,4.6,-,N/A,,Overcast,260,2012-11-28 07:53:00
3:53 AM,32.0,21.0,64,30.29,10.0,West,6.9,-,N/A,,Overcast,260,2012-11-28 08:53:00
4:53 AM,32.0,21.0,64,30.30,10.0,West,10.4,-,N/A,,Overcast,260,2012-11-28 09:53:00
5:53 AM,32.0,21.0,64,30.31,10.0,WSW,5.8,-,N/A,,Overcast,240,2012-11-28 10:53:00
6:53 AM,30.9,21.0,67,30.33,10.0,West,13.8,18.4,N/A,,Overcast,260,2012-11-28 11:53:00
7:53 AM,28.9,19.9,69,30.35,9.0,West,8.1,-,N/A,,Scattered Clouds,260,2012-11-28 12:53:00
8:53 AM,30.0,19.9,66,30.36,9.0,West,9.2,-,N/A,,Overcast,260,2012-11-28 13:53:00
9:53 AM,32.0,21.0,64,30.37,9.0,WSW,10.4,-,N/A,,Overcast,250,2012-11-28 14:53:00
10:53 AM,34.0,21.0,59,30.37,10.0,WSW,11.5,23.0,N/A,,Mostly Cloudy,250,2012-11-28 15:53:00
11:53 AM,36.0,21.0,55,30.36,10.0,West,13.8,23.0,N/A,,Partly Cloudy,260,2012-11-28 16:53:00
12:53 PM,37.9,18.0,45,30.33,10.0,West,19.6,23.0,N/A,,Clear,260,2012-11-28 17:53:00
1:53 PM,39.9,17.1,40,30.32,10.0,WSW,13.8,20.7,N/A,,Clear,250,2012-11-28 18:53:00
2:53 PM,39.9,16.0,38,30.32,10.0,West,10.4,21.9,N/A,,Clear,260,2012-11-28 19:53:00
3:53 PM,39.9,17.1,40,30.32,10.0,West,12.7,-,N/A,,Clear,260,2012-11-28 20:53:00
4:53 PM,37.0,17.1,44,30.33,10.0,West,11.5,-,N/A,,Clear,260,2012-11-28 21:53:00
5:53 PM,36.0,17.1,46,30.35,10.0,WSW,8.1,-,N/A,,Clear,250,2012-11-28 22:53:00
6:53 PM,35.1,18.0,50,30.37,10.0,WSW,9.2,-,N/A,,Clear,250,2012-11-28 23:53:00
7:53 PM,34.0,19.0,54,30.38,10.0,West,6.9,-,N/A,,Clear,270,2012-11-29 00:53:00
8:53 PM,33.1,19.0,56,30.39,10.0,WSW,5.8,-,N/A,,Clear,250,2012-11-29 01:53:00
9:53 PM,32.0,19.0,59,30.40,10.0,WSW,5.8,-,N/A,,Clear,250,2012-11-29 02:53:00
10:53 PM,30.9,19.9,64,30.40,10.0,SW,4.6,-,N/A,,Clear,230,2012-11-29 03:53:00
11:53 PM,30.0,19.0,64,30.40,10.0,SW,4.6,-,N/A,,Clear,220,2012-11-29 04:53:00